Regional Weather Roundup
Issued by NWS

Home | Current Version | Previous Version | Graphics & Text | Print | Product List | Glossary On
Versions: 1 2 3 4 5 6 7 8 9 10 11 12 13 14 15 16 17 18 19 20 21 22 23 24 25 26 27 28 29 30 31 32 33 34 35 36 37 38 39 40 41 42 43 44 45 46 47 48 49 50
069
ASUS43 KLMK 210902
RWRKY
KENTUCKY REGIONAL WEATHER ROUNDUP
NATIONAL WEATHER SERVICE LOUISVILLE KY
400 AM EST TUE NOV 21 2017

NOTE "FAIR" INDICATES FEW OR NO CLOUDS BELOW 12,000 FEET
WITH NO SIGNIFICANT WEATHER AND/OR OBSTRUCTIONS TO VISIBILITY.

KYZ001>023-026-027-061>063-070>075-211000-
WESTERN AND SOUTH CENTRAL KENTUCKY

CITY           SKY/WX    TMP DP  RH WIND       PRES   REMARKS
PADUCAH        CLOUDY    42  26  53 VRB5      29.98F
HENDERSON      CLOUDY    38  28  67 S7        29.99F WCI  33
OWENSBORO      CLEAR     37  27  67 S8        30.01S WCI  31
HOPKINSVILLE   CLEAR     37  24  57 S6        30.02R WCI  33
BOWLING GREEN  CLEAR     39  30  70 S9        30.04F WCI  33
GLASGOW        NOT AVBL
$$

KYZ024-025-028>034-038-045-046-053-211000-
NORTH CENTRAL KENTUCKY

CITY           SKY/WX    TMP DP  RH WIND       PRES   REMARKS
LOUISVILLE/SDF PTCLDY    43  24  47 S7        30.01R
LOUISVILLE/LOU CLEAR     39  25  57 S7        30.02R WCI  34
FORT KNOX      CLEAR     40  25  55 S13       30.00R WCI  32
$$

KYZ035>037-039>044-047>052-055>060-089>105-211000-
NORTHEAST KENTUCKY

CITY           SKY/WX    TMP DP  RH WIND       PRES   REMARKS
LEXINGTON      CLEAR     39  26  59 S10       30.02S WCI  32
COVINGTON      PTCLDY    37  25  61 SW8       29.96S WCI  31
FRANKFORT      CLEAR     41  25  53 S10       30.00S
$$

KYZ054-064>069-076>088-106>120-211000-
SOUTHEAST KENTUCKY

CITY           SKY/WX    TMP DP  RH WIND       PRES   REMARKS
JACKSON        CLOUDY    39  21  48 SW5       30.05S
LONDON         CLEAR     29  24  82 S3        30.07S
SOMERSET       CLEAR     37  28  70 S5        30.08S WCI  34
MIDDLESBORO    PTCLDY    35  28  74 SE5       30.11F WCI  31
MONTICELLO     SUNNY     44  32  62 VRB3      30.07S
$$





USA.gov is the U.S. government's official web portal to all federal, state and local government web resources and services.